• In Schweiz
  • Länderverzeichnis
  • Für 7 Tage
  • Wassertemperatur
  • Satellitenkarten
  • Wetterkarte
  • Widgets
  • user-avatar
    Anmelden

    Stündliche Wetter Rivas

    Heute, 17 Januar, Mittwoch

    Zeit Temperatur Niederschläge Wind Luftdruck Luftfeuchtigkeit
    00:00 +26°C° 0 mm 8 m/S 754 mmHg 78%
    01:00 +26°C° 0,1 mm 8 m/S 754 mmHg 77%
    02:00 +26°C° 0,1 mm 8 m/S 753 mmHg 76%
    03:00 +26°C° 0,1 mm 8 m/S 753 mmHg 75%
    04:00 +26°C° 0 mm 8 m/S 753 mmHg 74%
    05:00 +26°C° 0 mm 8 m/S 753 mmHg 74%
    06:00 +26°C° 0 mm 8 m/S 754 mmHg 75%
    07:00 +27°C° 0 mm 8 m/S 754 mmHg 70%
    08:00 +28°C° 0 mm 9 m/S 754 mmHg 65%
    09:00 +29°C° 0 mm 9 m/S 754 mmHg 60%
    10:00 +31°C° 0 mm 9 m/S 754 mmHg 58%
    11:00 +32°C° 0 mm 9 m/S 754 mmHg 55%
    12:00 +33°C° 0 mm 9 m/S 754 mmHg 52%
    13:00 +33°C° 0,1 mm 9 m/S 753 mmHg 53%
    14:00 +33°C° 0,1 mm 9 m/S 752 mmHg 53%
    15:00 +33°C° 0,1 mm 9 m/S 752 mmHg 53%
    16:00 +31°C° 0,2 mm 8 m/S 752 mmHg 59%
    17:00 +29°C° 0,2 mm 8 m/S 752 mmHg 64%
    18:00 +28°C° 0,2 mm 8 m/S 753 mmHg 69%
    19:00 +28°C° 0,1 mm 8 m/S 753 mmHg 70%
    20:00 +27°C° 0,1 mm 8 m/S 754 mmHg 71%
    21:00 +27°C° 0,1 mm 8 m/S 754 mmHg 71%
    22:00 +27°C° 0 mm 8 m/S 754 mmHg 70%
    23:00 +27°C° 0 mm 7 m/S 754 mmHg 69%

    Morgen, 18 Januar, Donnerstag

    Zeit Temperatur Niederschläge Wind Luftdruck Luftfeuchtigkeit
    00:00 +26°C° 0 mm 7 m/S 754 mmHg 68%
    01:00 +26°C° 0 mm 7 m/S 754 mmHg 67%
    02:00 +26°C° 0 mm 7 m/S 754 mmHg 66%
    03:00 +26°C° 0 mm 7 m/S 753 mmHg 66%
    04:00 +26°C° 0 mm 7 m/S 753 mmHg 67%
    05:00 +24°C° 0 mm 8 m/S 754 mmHg 68%
    06:00 +24°C° 0 mm 8 m/S 754 mmHg 69%
    07:00 +26°C° 0 mm 8 m/S 754 mmHg 66%
    08:00 +27°C° 0 mm 9 m/S 755 mmHg 64%
    09:00 +28°C° 0 mm 9 m/S 755 mmHg 61%
    10:00 +29°C° 0 mm 9 m/S 755 mmHg 59%
    11:00 +31°C° 0 mm 9 m/S 754 mmHg 56%
    12:00 +32°C° 0 mm 9 m/S 754 mmHg 54%
    13:00 +32°C° 0 mm 9 m/S 753 mmHg 54%
    14:00 +32°C° 0 mm 9 m/S 752 mmHg 55%
    15:00 +32°C° 0 mm 8 m/S 751 mmHg 55%
    16:00 +31°C° 0,1 mm 8 m/S 752 mmHg 61%
    17:00 +28°C° 0,1 mm 8 m/S 752 mmHg 66%
    18:00 +27°C° 0,1 mm 8 m/S 752 mmHg 71%
    19:00 +27°C° 0,2 mm 8 m/S 753 mmHg 73%
    20:00 +26°C° 0,2 mm 8 m/S 754 mmHg 74%
    21:00 +26°C° 0,2 mm 9 m/S 754 mmHg 75%
    22:00 +26°C° 0 mm 9 m/S 754 mmHg 76%
    23:00 +26°C° 0 mm 9 m/S 754 mmHg 76%

    übermorgen, 19 Januar, Freitag

    Zeit Temperatur Niederschläge Wind Luftdruck Luftfeuchtigkeit
    00:00 +24°C° 0 mm 9 m/S 754 mmHg 77%
    01:00 +24°C° 0,1 mm 9 m/S 754 mmHg 77%
    02:00 +24°C° 0,1 mm 9 m/S 753 mmHg 77%
    03:00 +24°C° 0,1 mm 9 m/S 753 mmHg 77%
    04:00 +24°C° 0,1 mm 9 m/S 753 mmHg 77%
    05:00 +24°C° 0,1 mm 9 m/S 753 mmHg 77%
    06:00 +24°C° 0,1 mm 9 m/S 753 mmHg 77%
    07:00 +26°C° 0 mm 9 m/S 754 mmHg 73%
    08:00 +27°C° 0 mm 9 m/S 754 mmHg 69%
    09:00 +29°C° 0 mm 10 m/S 755 mmHg 65%
    10:00 +31°C° 0,1 mm 9 m/S 754 mmHg 62%
    11:00 +32°C° 0,1 mm 9 m/S 754 mmHg 58%
    12:00 +33°C° 0,1 mm 9 m/S 753 mmHg 55%
    13:00 +33°C° 0,1 mm 9 m/S 753 mmHg 55%
    14:00 +32°C° 0,1 mm 8 m/S 752 mmHg 55%
    15:00 +32°C° 0,1 mm 8 m/S 751 mmHg 56%
    16:00 +31°C° 0,4 mm 8 m/S 751 mmHg 61%
    17:00 +29°C° 0,4 mm 8 m/S 752 mmHg 67%
    18:00 +27°C° 0,4 mm 8 m/S 752 mmHg 73%
    19:00 +27°C° 0,2 mm 8 m/S 752 mmHg 74%
    20:00 +27°C° 0,2 mm 8 m/S 753 mmHg 75%
    21:00 +26°C° 0,2 mm 8 m/S 754 mmHg 76%
    22:00 +26°C° 0 mm 8 m/S 754 mmHg 77%
    23:00 +26°C° 0 mm 8 m/S 753 mmHg 77%

    20 Januar, Samstag

    Zeit Temperatur Niederschläge Wind Luftdruck Luftfeuchtigkeit
    00:00 +26°C° 0 mm 8 m/S 753 mmHg 78%
    01:00 +26°C° 0 mm 8 m/S 753 mmHg 78%
    02:00 +24°C° 0 mm 8 m/S 752 mmHg 79%
    03:00 +24°C° 0 mm 8 m/S 752 mmHg 80%
    04:00 +24°C° 0 mm 8 m/S 752 mmHg 80%
    05:00 +24°C° 0 mm 8 m/S 752 mmHg 80%
    06:00 +24°C° 0 mm 8 m/S 752 mmHg 80%
    07:00 +26°C° 0 mm 9 m/S 753 mmHg 75%
    08:00 +27°C° 0 mm 9 m/S 753 mmHg 71%
    09:00 +29°C° 0 mm 9 m/S 754 mmHg 67%
    10:00 +29°C° 0 mm 9 m/S 753 mmHg 63%
    11:00 +31°C° 0 mm 8 m/S 753 mmHg 60%
    12:00 +32°C° 0 mm 8 m/S 752 mmHg 57%
    13:00 +33°C° 0 mm 8 m/S 752 mmHg 56%
    14:00 +33°C° 0 mm 8 m/S 751 mmHg 55%
    15:00 +33°C° 0 mm 7 m/S 750 mmHg 55%
    16:00 +32°C° 0 mm 7 m/S 750 mmHg 60%
    17:00 +30°C° 0 mm 7 m/S 750 mmHg 65%
    18:00 +28°C° 0 mm 6 m/S 751 mmHg 70%
    19:00 +28°C° 0,1 mm 6 m/S 751 mmHg 73%
    20:00 +27°C° 0,1 mm 6 m/S 752 mmHg 76%
    21:00 +27°C° 0,1 mm 6 m/S 753 mmHg 79%
    22:00 +26°C° 0 mm 6 m/S 752 mmHg 81%
    23:00 +26°C° 0 mm 6 m/S 752 mmHg 82%

    21 Januar, Sonntag

    Zeit Temperatur Niederschläge Wind Luftdruck Luftfeuchtigkeit
    00:00 +26°C° 0 mm 6 m/S 752 mmHg 84%
    01:00 +26°C° 0,1 mm 6 m/S 752 mmHg 85%
    02:00 +24°C° 0,1 mm 6 m/S 751 mmHg 85%
    03:00 +24°C° 0,1 mm 6 m/S 751 mmHg 86%
    04:00 +24°C° 0,1 mm 6 m/S 751 mmHg 85%
    05:00 +24°C° 0,1 mm 6 m/S 751 mmHg 85%
    06:00 +24°C° 0,1 mm 6 m/S 752 mmHg 85%
    07:00 +26°C° 0,1 mm 7 m/S 752 mmHg 80%
    08:00 +28°C° 0,1 mm 7 m/S 753 mmHg 75%
    09:00 +29°C° 0,1 mm 8 m/S 753 mmHg 69%
    10:00 +31°C° 0,1 mm 8 m/S 752 mmHg 65%
    11:00 +32°C° 0,1 mm 7 m/S 752 mmHg 61%
    12:00 +33°C° 0,1 mm 7 m/S 751 mmHg 57%
    13:00 +33°C° 0 mm 7 m/S 750 mmHg 56%
    14:00 +33°C° 0 mm 7 m/S 749 mmHg 55%
    15:00 +33°C° 0 mm 7 m/S 749 mmHg 55%
    16:00 +32°C° 0 mm 6 m/S 749 mmHg 60%
    17:00 +30°C° 0 mm 6 m/S 749 mmHg 65%
    18:00 +29°C° 0 mm 6 m/S 750 mmHg 70%
    19:00 +28°C° 0 mm 6 m/S 750 mmHg 73%
    20:00 +27°C° 0 mm 6 m/S 751 mmHg 77%
    21:00 +27°C° 0 mm 6 m/S 751 mmHg 80%
    22:00 +26°C° 0,1 mm 6 m/S 751 mmHg 82%
    23:00 +26°C° 0,1 mm 6 m/S 751 mmHg 84%

    22 Januar, Montag

    Zeit Temperatur Niederschläge Wind Luftdruck Luftfeuchtigkeit
    00:00 +26°C° 0,1 mm 6 m/S 751 mmHg 86%
    01:00 +26°C° 0,1 mm 6 m/S 750 mmHg 86%
    02:00 +26°C° 0,1 mm 6 m/S 750 mmHg 87%
    03:00 +24°C° 0,1 mm 6 m/S 750 mmHg 87%
    04:00 +24°C° 0,1 mm 6 m/S 750 mmHg 87%
    05:00 +24°C° 0,1 mm 6 m/S 751 mmHg 87%
    06:00 +24°C° 0,1 mm 6 m/S 751 mmHg 87%
    07:00 +26°C° 0 mm 6 m/S 752 mmHg 81%
    08:00 +28°C° 0 mm 6 m/S 752 mmHg 76%
    09:00 +29°C° 0 mm 7 m/S 753 mmHg 70%
    10:00 +30°C° 0 mm 6 m/S 752 mmHg 66%
    11:00 +32°C° 0 mm 6 m/S 752 mmHg 62%
    12:00 +33°C° 0 mm 6 m/S 751 mmHg 58%
    13:00 +33°C° 0,1 mm 6 m/S 750 mmHg 57%
    14:00 +33°C° 0,1 mm 6 m/S 750 mmHg 56%
    15:00 +34°C° 0,1 mm 6 m/S 749 mmHg 56%
    16:00 +32°C° 0,1 mm 6 m/S 749 mmHg 62%
    17:00 +30°C° 0,1 mm 6 m/S 750 mmHg 69%
    18:00 +28°C° 0,1 mm 6 m/S 750 mmHg 75%
    19:00 +27°C° 0,1 mm 6 m/S 750 mmHg 78%
    20:00 +27°C° 0,1 mm 6 m/S 751 mmHg 81%
    21:00 +26°C° 0,1 mm 7 m/S 752 mmHg 84%
    22:00 +26°C° 0,1 mm 7 m/S 752 mmHg 84%
    23:00 +26°C° 0,1 mm 7 m/S 751 mmHg 85%
    Mehr zeigen